Location: Brusselsch Zeekanaal
(50.8667°N, 4.3667°E)
Time: 07:04:25
(UTC+00:00)

CBERS-1 - Pass Details

Date: 08 November 2025
Orbit: 765 x 772 km, 98.8° (Epoch: 12 December)

Event Time Altitude Azimuth Distance (km) Brightness Sun altitude
Rises 06:07:19 0° 13° (NNE) 3,262 7.2 -6.6°
Reaches altitude 10° 06:09:39 10° 11° (N) 2,331 6.4 -6.2°
Maximum altitude 06:14:45 68° 290° (WNW) 835 4.0 -5.5°
Drops below altitude 10° 06:19:48 10° 208° (SSW) 2,312 6.4 -4.7°
Sets 06:22:06 0° 206° (SSW) 3,234 7.2 -4.4°
